�������l�o���
Date,Time,MP-1(��Sv/h),MP-2(��Sv/h),MP-3(��Sv/h),MP-4(��Sv/h),MP-5(��Sv/h),MP-6(��Sv/h),MP-7(��Sv/h),MP-8(��Sv/h),����,����(m/s),���J
2021/08/05,00:00,0.618,0.924,0.584,1.109,0.798,0.371,0.638,0.597,��,4.1,��
2021/08/05,00:10,0.617,0.924,0.582,1.108,0.798,0.371,0.638,0.597,��,3.5,��
2021/08/05,00:20,0.614,0.925,0.584,1.108,0.801,0.370,0.651,0.597,��,4.3,��
2021/08/05,00:30,0.616,0.924,0.584,1.109,0.799,0.369,0.641,0.597,��쐼,3.9,��
2021/08/05,00:40,0.615,0.925,0.585,1.108,0.799,0.372,0.639,0.597,��,3.8,��
2021/08/05,00:50,0.618,0.923,0.583,1.110,0.798,0.370,0.640,0.595,��,4.4,��
2021/08/05,01:00,0.616,0.923,0.584,1.109,0.799,0.371,0.641,0.598,��,4.0,��
2021/08/05,01:10,0.616,0.922,0.585,1.109,0.799,0.371,0.641,0.596,��,4.3,��
2021/08/05,01:20,0.617,0.925,0.586,1.111,0.798,0.371,0.640,0.596,��,4.2,��
2021/08/05,01:30,0.617,0.921,0.584,1.110,0.800,0.371,0.639,0.597,��,4.0,��
2021/08/05,01:40,0.617,0.923,0.584,1.108,0.799,0.371,0.641,0.596,��,3.9,��
2021/08/05,01:50,0.616,0.924,0.584,1.109,0.798,0.370,0.640,0.597,��,4.1,��
2021/08/05,02:00,0.616,0.923,0.584,1.111,0.802,0.372,0.641,0.596,��,3.9,��
2021/08/05,02:10,0.617,0.924,0.584,1.109,0.797,0.370,0.641,0.598,��쐼,3.2,��
2021/08/05,02:20,0.617,0.923,0.585,1.111,0.798,0.371,0.641,0.598,��쐼,3.1,��
2021/08/05,02:30,0.617,0.924,0.583,1.110,0.798,0.371,0.640,0.597,�쐼,2.0,��
2021/08/05,02:40,0.618,0.925,0.585,1.110,0.800,0.373,0.640,0.598,��쐼,2.5,��
2021/08/05,02:50,0.618,0.923,0.584,1.111,0.801,0.372,0.642,0.597,��쐼,2.3,��
2021/08/05,03:00,0.617,0.925,0.586,1.111,0.799,0.372,0.640,0.596,�쐼,1.2,��
2021/08/05,03:10,0.616,0.925,0.584,1.111,0.800,0.372,0.640,0.597,���쐼,0.9,��
2021/08/05,03:20,0.618,0.925,0.585,1.111,0.801,0.372,0.640,0.597,��,0.9,��
2021/08/05,03:30,0.619,0.924,0.586,1.112,0.802,0.372,0.641,0.599,�k��,1.7,��
2021/08/05,03:40,0.619,0.926,0.586,1.108,0.801,0.372,0.640,0.597,�k��,1.7,��
2021/08/05,03:50,0.619,0.925,0.587,1.111,0.800,0.372,0.640,0.599,�k�k��,2.0,��
2021/08/05,04:00,0.617,0.925,0.587,1.112,0.800,0.371,0.642,0.598,�k��,2.8,��
2021/08/05,04:10,0.619,0.926,0.585,1.113,0.800,0.373,0.641,0.598,�k�k��,3.7,��
2021/08/05,04:20,0.618,0.926,0.586,1.111,0.801,0.372,0.642,0.597,�k�k��,3.7,��
2021/08/05,04:30,0.619,0.924,0.588,1.112,0.801,0.373,0.642,0.597,�k�k��,3.8,��
2021/08/05,04:40,0.618,0.926,0.587,1.111,0.802,0.373,0.643,0.598,�k�k��,3.8,��
2021/08/05,04:50,0.617,0.924,0.586,1.113,0.800,0.373,0.642,0.599,�k�k��,4.6,��
2021/08/05,05:00,0.618,0.923,0.587,1.111,0.799,0.374,0.639,0.597,�k,4.3,��
2021/08/05,05:10,0.617,0.925,0.585,1.112,0.800,0.371,0.641,0.599,�k,3.4,��
2021/08/05,05:20,0.618,0.925,0.587,1.111,0.800,0.374,0.642,0.599,�k�k��,3.5,��
2021/08/05,05:30,0.619,0.927,0.585,1.112,0.799,0.372,0.641,0.597,�k�k��,5.0,��
2021/08/05,05:40,0.618,0.926,0.585,1.111,0.801,0.371,0.639,0.599,�k,4.7,��
2021/08/05,05:50,0.618,0.924,0.584,1.111,0.800,0.371,0.640,0.600,�k�k��,4.4,��
2021/08/05,06:00,0.615,0.925,0.585,1.111,0.800,0.370,0.641,0.597,�k�k��,3.8,��
2021/08/05,06:10,0.617,0.922,0.586,1.111,0.799,0.371,0.641,0.597,�k�k��,3.0,��
2021/08/05,06:20,0.615,0.925,0.586,1.109,0.799,0.371,0.640,0.597,�k,2.6,��
2021/08/05,06:30,0.616,0.924,0.584,1.110,0.798,0.372,0.641,0.597,�k,2.8,��
2021/08/05,06:40,0.617,0.924,0.585,1.109,0.799,0.372,0.642,0.598,�k,2.3,��
2021/08/05,06:50,0.618,0.923,0.585,1.109,0.800,0.371,0.640,0.597,�k,2.0,��
2021/08/05,07:00,0.616,0.923,0.584,1.112,0.801,0.370,0.640,0.599,�k,2.2,��
2021/08/05,07:10,0.618,0.923,0.584,1.109,0.798,0.372,0.640,0.598,�k,2.0,��
2021/08/05,07:20,0.616,0.923,0.584,1.112,0.798,0.371,0.640,0.597,�k�k��,2.5,��
2021/08/05,07:30,0.616,0.922,0.583,1.109,0.799,0.371,0.640,0.597,�k,3.4,��
2021/08/05,07:40,0.617,0.923,0.583,1.110,0.797,0.371,0.642,0.596,�k,2.6,��
2021/08/05,07:50,0.615,0.919,0.583,1.111,0.798,0.370,0.641,0.597,�k�k��,2.3,��
2021/08/05,08:00,0.617,0.921,0.583,1.110,0.798,0.371,0.641,0.598,�k,2.8,��
2021/08/05,08:10,0.615,0.920,0.583,1.112,0.797,0.371,0.640,0.597,�k�k��,3.0,��
2021/08/05,08:20,0.617,0.921,0.585,1.109,0.797,0.371,0.640,0.596,�k�k��,3.8,�L
2021/08/05,08:30,0.616,0.922,0.583,1.112,0.795,0.370,0.641,0.595,�k�k��,3.6,��
2021/08/05,08:40,0.615,0.921,0.583,1.110,0.796,0.370,0.639,0.595,�k�k��,3.1,��
2021/08/05,08:50,0.617,0.923,0.582,1.108,0.796,0.371,0.643,0.594,�k��,3.1,��
2021/08/05,09:00,0.618,0.921,0.585,1.107,0.798,0.371,0.643,0.596,�k��,2.9,��
2021/08/05,09:10,0.617,0.922,0.582,1.111,0.798,0.371,0.641,0.595,�k�k��,2.9,��
2021/08/05,09:20,0.617,0.921,0.582,1.110,0.798,0.370,0.639,0.595,�k��,3.3,��
2021/08/05,09:30,0.617,0.923,0.584,1.110,0.799,0.369,0.642,0.595,�k��,2.8,��
2021/08/05,09:40,0.617,0.922,0.583,1.110,0.798,0.369,0.642,0.597,���k��,3.7,��
2021/08/05,09:50,0.615,0.919,0.584,1.111,0.798,0.371,0.640,0.595,���k��,3.4,��
2021/08/05,10:00,0.617,0.924,0.583,1.112,0.799,0.369,0.641,0.595,���k��,3.2,��
2021/08/05,10:10,0.617,0.920,0.585,1.109,0.800,0.371,0.641,0.595,���k��,2.5,��
2021/08/05,10:20,0.617,0.921,0.583,1.112,0.799,0.370,0.640,0.594,��,3.1,��
2021/08/05,10:30,0.619,0.924,0.585,1.112,0.798,0.369,0.641,0.595,��,2.6,��
2021/08/05,10:40,0.617,0.923,0.584,1.112,0.802,0.370,0.639,0.596,���쓌,2.3,��
2021/08/05,10:50,0.617,0.921,0.584,1.113,0.801,0.371,0.640,0.597,��,2.3,��
2021/08/05,11:00,0.618,0.921,0.582,1.112,0.801,0.371,0.640,0.598,��,2.6,��
2021/08/05,11:10,0.617,0.922,0.585,1.115,0.801,0.371,0.641,0.596,��,2.5,��
2021/08/05,11:20,0.619,0.923,0.584,1.111,0.801,0.372,0.641,0.596,��,2.2,��
2021/08/05,11:30,0.616,0.922,0.585,1.109,0.802,0.372,0.641,0.598,��,2.8,��
2021/08/05,11:40,0.620,0.923,0.585,1.107,0.802,0.370,0.641,0.596,��,3.0,��
2021/08/05,11:50,0.620,0.924,0.586,1.109,0.800,0.373,0.641,0.597,���쓌,4.6,��
2021/08/05,12:00,0.620,0.925,0.586,1.109,0.797,0.370,0.642,0.597,�쓌,3.3,��
2021/08/05,12:10,0.619,0.927,0.585,1.111,0.802,0.369,0.641,0.597,�쓌,4.4,��
2021/08/05,12:20,0.619,0.929,0.586,1.112,0.803,0.372,0.642,0.598,��쓌,6.0,��
2021/08/05,12:30,0.619,0.926,0.585,1.112,0.802,0.371,0.641,0.598,��쓌,7.1,��
2021/08/05,12:40,0.619,0.928,0.587,1.113,0.804,0.371,0.641,0.600,��,7.0,��
2021/08/05,12:50,0.620,0.928,0.587,1.111,0.805,0.371,0.641,0.599,��,6.4,��
2021/08/05,13:00,0.618,0.928,0.587,1.113,0.803,0.371,0.642,0.599,��,5.8,��
2021/08/05,13:10,0.621,0.928,0.586,1.113,0.804,0.372,0.640,0.599,��,6.5,��
2021/08/05,13:20,0.619,0.927,0.585,1.111,0.805,0.370,0.640,0.600,��쓌,7.1,��
2021/08/05,13:30,0.619,0.927,0.584,1.112,0.805,0.371,0.640,0.598,��,7.1,��
2021/08/05,13:40,0.620,0.927,0.584,1.114,0.806,0.372,0.641,0.600,��,6.4,��
2021/08/05,13:50,0.619,0.926,0.584,1.114,0.804,0.372,0.641,0.598,��,4.9,��
2021/08/05,14:00,0.619,0.926,0.586,1.115,0.803,0.371,0.642,0.599,��,5.5,��
2021/08/05,14:10,0.618,0.924,0.586,1.114,0.803,0.371,0.641,0.598,��,8.9,��
2021/08/05,14:20,0.620,0.926,0.585,1.112,0.804,0.373,0.642,0.598,��쓌,8.2,��
2021/08/05,14:30,0.618,0.923,0.586,1.113,0.807,0.370,0.642,0.597,��,6.7,��
2021/08/05,14:40,0.619,0.927,0.587,1.114,0.803,0.371,0.642,0.598,��,7.0,��
2021/08/05,14:50,0.619,0.927,0.588,1.115,0.804,0.369,0.641,0.598,��,5.3,��
2021/08/05,15:00,0.619,0.927,0.586,1.115,0.804,0.371,0.641,0.598,��,5.2,��
2021/08/05,15:10,0.620,0.923,0.587,1.114,0.802,0.371,0.641,0.596,��,4.9,��
2021/08/05,15:20,0.618,0.925,0.588,1.112,0.803,0.369,0.641,0.598,��쓌,6.5,��
2021/08/05,15:30,0.620,0.924,0.585,1.113,0.804,0.371,0.641,0.597,��,5.6,��
2021/08/05,15:40,0.618,0.928,0.586,1.115,0.806,0.371,0.643,0.599,��,5.4,��
2021/08/05,15:50,0.620,0.927,0.589,1.114,0.803,0.371,0.643,0.599,��,5.6,��
2021/08/05,16:00,0.621,0.929,0.587,1.115,0.805,0.372,0.641,0.598,��,4.5,��
2021/08/05,16:10,0.619,0.929,0.588,1.115,0.805,0.372,0.643,0.596,��,5.3,��
2021/08/05,16:20,0.620,0.928,0.588,1.113,0.805,0.371,0.642,0.598,��,5.5,��
2021/08/05,16:30,0.620,0.928,0.588,1.114,0.805,0.372,0.644,0.598,��,5.2,��
2021/08/05,16:40,0.619,0.927,0.587,1.115,0.806,0.371,0.641,0.597,��,5.7,��
2021/08/05,16:50,0.620,0.926,0.586,1.112,0.806,0.370,0.642,0.596,��,5.8,��
2021/08/05,17:00,0.621,0.928,0.588,1.115,0.805,0.372,0.641,0.598,��,4.9,��
2021/08/05,17:10,0.619,0.927,0.586,1.113,0.805,0.371,0.641,0.597,��,5.9,��
2021/08/05,17:20,0.621,0.927,0.586,1.113,0.804,0.371,0.642,0.597,��,7.2,��
2021/08/05,17:30,0.619,0.926,0.586,1.115,0.805,0.370,0.642,0.598,��,6.2,��
2021/08/05,17:40,0.620,0.928,0.585,1.113,0.804,0.371,0.640,0.597,��,5.3,��
2021/08/05,17:50,0.620,0.927,0.586,1.116,0.805,0.371,0.640,0.595,��,6.6,��
2021/08/05,18:00,0.618,0.927,0.585,1.113,0.803,0.372,0.641,0.596,��,7.3,��
2021/08/05,18:10,0.622,0.929,0.585,1.114,0.805,0.372,0.642,0.597,��,6.4,��
2021/08/05,18:20,0.620,0.929,0.586,1.114,0.805,0.372,0.642,0.597,��,5.2,��
2021/08/05,18:30,0.620,0.928,0.588,1.116,0.805,0.372,0.641,0.597,��,6.0,��
2021/08/05,18:40,0.619,0.930,0.586,1.113,0.807,0.372,0.640,0.598,��,6.4,��
2021/08/05,18:50,0.618,0.930,0.587,1.114,0.805,0.372,0.642,0.598,��,6.7,��
2021/08/05,19:00,0.619,0.926,0.585,1.114,0.804,0.371,0.642,0.597,��,5.8,��
2021/08/05,19:10,0.621,0.930,0.587,1.116,0.805,0.370,0.642,0.596,��,6.0,��
2021/08/05,19:20,0.620,0.927,0.586,1.114,0.804,0.372,0.641,0.597,��,6.7,��
2021/08/05,19:30,0.619,0.930,0.588,1.115,0.804,0.371,0.641,0.598,��,7.4,��
2021/08/05,19:40,0.620,0.928,0.587,1.114,0.806,0.371,0.642,0.596,��,7.5,��
2021/08/05,19:50,0.620,0.930,0.587,1.116,0.805,0.371,0.643,0.598,��,5.8,��
2021/08/05,20:00,0.619,0.929,0.587,1.114,0.807,0.372,0.642,0.599,��,5.8,��
2021/08/05,20:10,0.620,0.930,0.587,1.115,0.805,0.370,0.643,0.596,��,6.6,��
2021/08/05,20:20,0.622,0.926,0.588,1.115,0.806,0.370,0.642,0.598,��,6.9,��
2021/08/05,20:30,0.621,0.929,0.588,1.115,0.808,0.371,0.641,0.597,��,5.7,��
2021/08/05,20:40,0.618,0.929,0.586,1.114,0.803,0.370,0.642,0.598,��,6.4,��
2021/08/05,20:50,0.619,0.929,0.587,1.115,0.805,0.372,0.643,0.597,��,6.0,��
2021/08/05,21:00,0.619,0.928,0.587,1.113,0.804,0.371,0.641,0.598,��,5.7,��
2021/08/05,21:10,0.620,0.931,0.587,1.114,0.806,0.370,0.644,0.597,��,5.8,��
2021/08/05,21:20,0.619,0.930,0.586,1.114,0.806,0.371,0.642,0.598,��쓌,5.9,��
2021/08/05,21:30,0.619,0.928,0.587,1.116,0.804,0.373,0.642,0.599,��,6.7,��
2021/08/05,21:40,0.620,0.928,0.586,1.115,0.807,0.372,0.643,0.597,��,6.7,��
2021/08/05,21:50,0.619,0.929,0.589,1.116,0.806,0.372,0.641,0.597,��,6.8,��
2021/08/05,22:00,0.618,0.932,0.585,1.116,0.807,0.372,0.641,0.599,��,6.8,��
2021/08/05,22:10,0.619,0.927,0.586,1.116,0.806,0.371,0.641,0.597,��,5.8,��
2021/08/05,22:20,0.618,0.929,0.588,1.116,0.805,0.371,0.642,0.598,��,5.7,��
2021/08/05,22:30,0.619,0.929,0.589,1.116,0.804,0.371,0.642,0.597,��,5.5,��
2021/08/05,22:40,0.620,0.928,0.587,1.114,0.806,0.372,0.642,0.597,��,5.8,��
2021/08/05,22:50,0.620,0.928,0.586,1.117,0.805,0.371,0.642,0.599,��,6.2,��
2021/08/05,23:00,0.620,0.926,0.587,1.116,0.804,0.372,0.641,0.597,��,5.9,��
2021/08/05,23:10,0.618,0.927,0.587,1.116,0.803,0.370,0.641,0.598,��,5.3,��
2021/08/05,23:20,0.621,0.929,0.585,1.116,0.805,0.371,0.642,0.597,��,6.1,��
2021/08/05,23:30,0.618,0.930,0.586,1.116,0.805,0.372,0.642,0.598,��,7.1,��
2021/08/05,23:40,0.619,0.928,0.587,1.115,0.806,0.371,0.642,0.599,��,6.9,��
2021/08/05,23:50,0.619,0.930,0.589,1.117,0.805,0.372,0.642,0.599,��,6.6,��
